Location: Asheville, NC
(35.6000°N, 82.5500°W)
Time: 05:44:11
(UTC-04:00)

CUTE 1.7 + AOD 2 - Pass Details

Date: 06 January 2018
Orbit: 595 x 612 km, 97.6° (Epoch: 20 April)

Event Time Altitude Azimuth Distance (km) Brightness Sun altitude
Rises 06:42:36 0° 26° (NNE) 2,858 ? -11.6°
Reaches altitude 10° 06:45:06 10° 39° (NE) 1,947 ? -11.1°
Maximum altitude 06:48:36 25° 96° (E) 1,214 ? -10.4°
Drops below altitude 10° 06:52:05 10° 152° (SSE) 1,927 ? -9.8°
Sets 06:54:32 0° 166° (SSE) 2,822 ? -9.3°
